• In Belarus
  • List of Countries
  • For 7 days
  • Water Temperature
  • Satellite Maps
  • Weather Map
  • Weather Widgets
  • user-avatar
    Login

    Hourly Weather Tskhinvali

    Today, 20 September, Thursday

    Time Temperature Precipitation Wind Pressure Humidity
    00:00 +13°C° 0 mm 2 mps 686 mmHg 75%
    01:00 +13°C° 0 mm 2 mps 686 mmHg 73%
    02:00 +12°C° 0 mm 2 mps 686 mmHg 70%
    03:00 +12°C° 0 mm 2 mps 686 mmHg 68%
    04:00 +12°C° 0 mm 2 mps 686 mmHg 66%
    05:00 +12°C° 0 mm 2 mps 686 mmHg 64%
    06:00 +12°C° 0 mm 2 mps 686 mmHg 62%
    07:00 +15°C° 0 mm 2 mps 686 mmHg 56%
    08:00 +17°C° 0 mm 2 mps 687 mmHg 51%
    09:00 +20°C° 0 mm 2 mps 687 mmHg 45%
    10:00 +21°C° 0 mm 2 mps 687 mmHg 43%
    11:00 +22°C° 0 mm 3 mps 687 mmHg 41%
    12:00 +25°C° 0 mm 3 mps 687 mmHg 39%
    13:00 +25°C° 0 mm 3 mps 687 mmHg 41%
    14:00 +25°C° 0 mm 3 mps 687 mmHg 42%
    15:00 +25°C° 0 mm 3 mps 686 mmHg 43%
    16:00 +22°C° 0 mm 3 mps 686 mmHg 51%
    17:00 +20°C° 0 mm 2 mps 686 mmHg 59%
    18:00 +18°C° 0 mm 2 mps 685 mmHg 68%
    19:00 +17°C° 0 mm 2 mps 686 mmHg 71%
    20:00 +16°C° 0 mm 2 mps 686 mmHg 75%
    21:00 +15°C° 0 mm 2 mps 686 mmHg 79%
    22:00 +15°C° 0 mm 2 mps 686 mmHg 80%
    23:00 +15°C° 0 mm 2 mps 685 mmHg 81%

    Tomorrow, 21 September, Friday

    Time Temperature Precipitation Wind Pressure Humidity
    00:00 +14°C° 0 mm 2 mps 685 mmHg 82%
    01:00 +14°C° 0 mm 2 mps 685 mmHg 83%
    02:00 +14°C° 0 mm 2 mps 685 mmHg 84%
    03:00 +14°C° 0 mm 2 mps 685 mmHg 85%
    04:00 +13°C° 0 mm 2 mps 685 mmHg 84%
    05:00 +13°C° 0 mm 2 mps 685 mmHg 84%
    06:00 +13°C° 0 mm 2 mps 685 mmHg 84%
    07:00 +15°C° 0 mm 2 mps 685 mmHg 75%
    08:00 +18°C° 0 mm 2 mps 685 mmHg 66%
    09:00 +20°C° 0 mm 3 mps 686 mmHg 58%
    10:00 +21°C° 0 mm 3 mps 686 mmHg 53%
    11:00 +24°C° 0 mm 3 mps 686 mmHg 48%
    12:00 +25°C° 0 mm 3 mps 686 mmHg 43%
    13:00 +25°C° 0 mm 3 mps 686 mmHg 42%
    14:00 +26°C° 0 mm 3 mps 685 mmHg 41%
    15:00 +26°C° 0 mm 3 mps 685 mmHg 40%
    16:00 +24°C° 0 mm 2 mps 685 mmHg 48%
    17:00 +21°C° 0 mm 2 mps 685 mmHg 56%
    18:00 +19°C° 0 mm 1 mps 684 mmHg 64%
    19:00 +19°C° 0 mm 1 mps 685 mmHg 67%
    20:00 +18°C° 0 mm 1 mps 685 mmHg 69%
    21:00 +16°C° 0 mm 2 mps 685 mmHg 71%
    22:00 +16°C° 0 mm 2 mps 685 mmHg 72%
    23:00 +15°C° 0 mm 2 mps 685 mmHg 72%

    Day after tomorrow, 22 September, Saturday

    Time Temperature Precipitation Wind Pressure Humidity
    00:00 +15°C° 0 mm 1 mps 685 mmHg 73%
    01:00 +15°C° 0 mm 1 mps 685 mmHg 73%
    02:00 +14°C° 0 mm 1 mps 685 mmHg 74%
    03:00 +14°C° 0 mm 1 mps 685 mmHg 74%
    04:00 +14°C° 0 mm 1 mps 685 mmHg 74%
    05:00 +14°C° 0 mm 1 mps 685 mmHg 75%
    06:00 +14°C° 0 mm 1 mps 685 mmHg 75%
    07:00 +16°C° 0 mm 2 mps 685 mmHg 68%
    08:00 +18°C° 0 mm 2 mps 686 mmHg 61%
    09:00 +20°C° 0 mm 2 mps 686 mmHg 55%
    10:00 +21°C° 0 mm 3 mps 686 mmHg 53%
    11:00 +22°C° 0 mm 3 mps 686 mmHg 51%
    12:00 +24°C° 0 mm 3 mps 686 mmHg 49%
    13:00 +24°C° 0.1 mm 3 mps 686 mmHg 49%
    14:00 +24°C° 0.1 mm 3 mps 685 mmHg 49%
    15:00 +24°C° 0.1 mm 3 mps 685 mmHg 49%
    16:00 +23°C° 0.1 mm 2 mps 685 mmHg 55%
    17:00 +20°C° 0.1 mm 2 mps 685 mmHg 62%
    18:00 +19°C° 0.1 mm 1 mps 685 mmHg 69%
    19:00 +18°C° 0 mm 1 mps 685 mmHg 72%
    20:00 +16°C° 0 mm 1 mps 685 mmHg 75%
    21:00 +16°C° 0 mm 1 mps 685 mmHg 77%
    22:00 +15°C° 0 mm 1 mps 685 mmHg 77%
    23:00 +15°C° 0 mm 1 mps 685 mmHg 77%

    23 September, Sunday

    Time Temperature Precipitation Wind Pressure Humidity
    00:00 +14°C° 0 mm 1 mps 685 mmHg 77%
    01:00 +14°C° 0 mm 1 mps 685 mmHg 77%
    02:00 +14°C° 0 mm 1 mps 684 mmHg 77%
    03:00 +14°C° 0 mm 1 mps 684 mmHg 76%
    04:00 +14°C° 0 mm 1 mps 684 mmHg 77%
    05:00 +14°C° 0 mm 1 mps 684 mmHg 78%
    06:00 +14°C° 0 mm 1 mps 684 mmHg 79%
    07:00 +16°C° 0 mm 2 mps 684 mmHg 72%
    08:00 +18°C° 0 mm 2 mps 685 mmHg 66%
    09:00 +20°C° 0 mm 2 mps 685 mmHg 59%
    10:00 +21°C° 0 mm 2 mps 685 mmHg 55%
    11:00 +22°C° 0 mm 3 mps 685 mmHg 52%
    12:00 +25°C° 0 mm 3 mps 685 mmHg 48%
    13:00 +25°C° 0 mm 3 mps 685 mmHg 48%
    14:00 +25°C° 0 mm 3 mps 685 mmHg 48%
    15:00 +25°C° 0 mm 2 mps 684 mmHg 47%
    16:00 +23°C° 0.1 mm 2 mps 684 mmHg 57%
    17:00 +20°C° 0.1 mm 2 mps 684 mmHg 66%
    18:00 +19°C° 0.1 mm 1 mps 684 mmHg 75%
    19:00 +18°C° 0 mm 1 mps 684 mmHg 80%
    20:00 +16°C° 0 mm 1 mps 684 mmHg 84%
    21:00 +15°C° 0 mm 1 mps 684 mmHg 89%
    22:00 +15°C° 0 mm 1 mps 684 mmHg 91%
    23:00 +15°C° 0 mm 1 mps 684 mmHg 92%

    24 September, Monday

    Time Temperature Precipitation Wind Pressure Humidity
    00:00 +15°C° 0 mm 1 mps 684 mmHg 94%
    01:00 +14°C° 0 mm 1 mps 684 mmHg 94%
    02:00 +14°C° 0 mm 1 mps 684 mmHg 94%
    03:00 +14°C° 0 mm 1 mps 684 mmHg 94%
    04:00 +14°C° 0 mm 1 mps 684 mmHg 94%
    05:00 +14°C° 0 mm 1 mps 684 mmHg 94%
    06:00 +14°C° 0 mm 1 mps 685 mmHg 94%
    07:00 +15°C° 0 mm 2 mps 685 mmHg 86%
    08:00 +17°C° 0 mm 2 mps 685 mmHg 78%
    09:00 +18°C° 0 mm 2 mps 685 mmHg 70%
    10:00 +20°C° 0 mm 3 mps 685 mmHg 65%
    11:00 +21°C° 0 mm 3 mps 685 mmHg 60%
    12:00 +22°C° 0 mm 3 mps 685 mmHg 55%
    13:00 +22°C° 0 mm 3 mps 685 mmHg 54%
    14:00 +22°C° 0 mm 3 mps 685 mmHg 53%
    15:00 +24°C° 0 mm 3 mps 684 mmHg 52%
    16:00 +21°C° 0 mm 2 mps 684 mmHg 61%
    17:00 +19°C° 0 mm 2 mps 684 mmHg 70%
    18:00 +18°C° 0 mm 1 mps 684 mmHg 79%
    19:00 +16°C° 0 mm 1 mps 683 mmHg 81%
    20:00 +15°C° 0 mm 1 mps 683 mmHg 83%
    21:00 +15°C° 0 mm 1 mps 683 mmHg 85%
    22:00 +14°C° 0 mm 1 mps 683 mmHg 82%
    23:00 +14°C° 0 mm 1 mps 683 mmHg 80%

    25 September, Tuesday

    Time Temperature Precipitation Wind Pressure Humidity
    00:00 +14°C° 0 mm 1 mps 683 mmHg 77%
    01:00 +14°C° 0 mm 1 mps 683 mmHg 76%
    02:00 +14°C° 0 mm 1 mps 682 mmHg 75%
    03:00 +13°C° 0 mm 2 mps 682 mmHg 74%
    04:00 +13°C° 0 mm 2 mps 682 mmHg 75%
    05:00 +13°C° 0 mm 1 mps 682 mmHg 75%
    06:00 +13°C° 0 mm 1 mps 682 mmHg 76%
    07:00 +16°C° 0 mm 2 mps 682 mmHg 66%
    08:00 +18°C° 0 mm 2 mps 682 mmHg 57%
    09:00 +21°C° 0 mm 2 mps 683 mmHg 47%
    10:00 +24°C° 0 mm 3 mps 683 mmHg 43%
    11:00 +25°C° 0 mm 3 mps 683 mmHg 39%
    12:00 +27°C° 0 mm 3 mps 683 mmHg 35%
    13:00 +27°C° 0 mm 3 mps 682 mmHg 34%
    14:00 +27°C° 0 mm 3 mps 682 mmHg 33%
    15:00 +28°C° 0 mm 3 mps 682 mmHg 32%
    16:00 +25°C° 0 mm 2 mps 682 mmHg 40%
    17:00 +23°C° 0 mm 2 mps 681 mmHg 48%
    18:00 +20°C° 0 mm 1 mps 681 mmHg 55%
    19:00 +19°C° 0 mm 1 mps 681 mmHg 57%
    20:00 +18°C° 0 mm 1 mps 681 mmHg 58%
    21:00 +16°C° 0 mm 1 mps 681 mmHg 59%
    22:00 +16°C° 0 mm 1 mps 681 mmHg 59%
    23:00 +15°C° 0 mm 1 mps 681 mmHg 59%
    Show more